| time (UTC) | temp F | wind direction | speed knots | gust knots | rain 1hr in | rain 24hr in | rain mn in | humidity % | barometer mb |
| 20260508132533 | 42 | 195 | 0.9 | 0.9 | 0.07 | 0.01 | 0.01 | 78 | 1012.8 |
| 20260508132030 | 43 | 243 | 1.7 | 2.6 | 0.00 | 0.00 | 0.00 | 79 | 1012.9 |
| 20260508131525 | 43 | 207 | 1.7 | 2.6 | 0.00 | 0.00 | 0.00 | 79 | 1012.8 |
| 20260508131022 | 43 | 167 | 0.0 | 0.9 | 0.00 | 0.00 | 0.00 | 80 | 1012.7 |
| 20260508130519 | 43 | 180 | 0.0 | 0.0 | 0.00 | 0.00 | 0.00 | 80 | 1012.5 |
| 20260508130015 | 43 | 171 | 0.9 | 1.7 | 0.00 | 0.00 | 0.00 | 81 | 1012.7 |
| 20260508125511 | 42 | 171 | 0.0 | 0.9 | 0.00 | 0.00 | 0.00 | 81 | 1012.4 |
| 20260508125009 | 42 | 162 | 0.9 | 0.9 | 0.00 | 0.00 | 0.00 | 81 | 1012.3 |
| 20260508124507 | 42 | 158 | 0.9 | 1.7 | 0.00 | 0.00 | 0.00 | 81 | 1012.0 |
| 20260508124004 | 43 | 159 | 0.9 | 0.9 | 0.00 | 0.00 | 0.00 | 81 | 1012.2 |
| 20260508123503 | 42 | 166 | 2.6 | 2.6 | 0.00 | 0.00 | 0.00 | 81 | 1012.1 |
| 20260508122958 | 42 | 136 | 2.6 | 2.6 | 0.00 | 0.00 | 0.00 | 82 | 1012.1 |
| 20260508122455 | 42 | 120 | 2.6 | 2.6 | 0.00 | 0.00 | 0.00 | 84 | 1012.1 |
| 20260508121952 | 41 | 117 | 1.7 | 1.7 | 0.00 | 0.00 | 0.00 | 85 | 1012.2 |
| 20260508121450 | 41 | 125 | 1.7 | 1.7 | 0.00 | 0.00 | 0.00 | 87 | 1012.2 |
| 20260508120948 | 40 | 181 | 2.6 | 2.6 | 0.00 | 0.00 | 0.00 | 87 | 1012.3 |
| 20260508120446 | 41 | 170 | 0.9 | 1.7 | 0.00 | 0.00 | 0.00 | 88 | 1012.4 |
| 20260508115943 | 41 | 162 | 1.7 | 1.7 | 0.00 | 0.00 | 0.00 | 89 | 1012.3 |
| 20260508115441 | 40 | 136 | 0.0 | 0.0 | 0.00 | 0.00 | 0.00 | 90 | 1012.3 |
| 20260508114937 | 39 | 153 | 1.7 | 1.7 | 0.00 | 0.00 | 0.00 | 90 | 1012.3 |
| 20260508114435 | 38 | 144 | 0.9 | 0.9 | 0.00 | 0.00 | 0.00 | 90 | 1012.4 |
| 20260508113931 | 38 | 151 | 0.9 | 0.9 | 0.00 | 0.00 | 0.00 | 90 | 1012.4 |
| 20260508113429 | 39 | 154 | 0.9 | 0.9 | 0.00 | 0.00 | 0.00 | 90 | 1012.4 |
| 20260508112926 | 37 | 145 | 0.9 | 0.9 | 0.00 | 0.00 | 0.00 | 91 | 1012.6 |
| 20260508112422 | 37 | 140 | 0.9 | 0.9 | 0.00 | 0.00 | 0.00 | 91 | 1012.6 |
| 20260508111919 | 37 | 144 | 0.0 | 0.0 | 0.00 | 0.00 | 0.00 | 90 | 1012.6 |
| 20260508111416 | 37 | 144 | 0.0 | 0.0 | 0.00 | 0.00 | 0.00 | 90 | 1012.7 |
| 20260508110913 | 37 | 146 | 0.0 | 0.0 | 0.00 | 0.00 | 0.00 | 90 | 1012.7 |
| 20260508110410 | 37 | 160 | 0.0 | 0.0 | 0.00 | 0.00 | 0.00 | 90 | 1013.0 |
| 20260508105904 | 36 | 151 | 0.0 | 0.0 | 0.00 | 0.00 | 0.00 | 90 | 1012.8 |
| 20260508105401 | 36 | 150 | 0.0 | 0.0 | 0.00 | 0.00 | 0.00 | 90 | 1012.8 |
| 20260508104859 | 36 | 151 | 0.9 | 0.9 | 0.00 | 0.00 | 0.00 | 90 | 1012.5 |
| 20260508104356 | 36 | 154 | 0.0 | 0.9 | 0.00 | 0.00 | 0.00 | 90 | 1012.5 |
| 20260508103853 | 36 | 153 | 0.0 | 0.0 | 0.00 | 0.00 | 0.00 | 90 | 1012.4 |
| 20260508103349 | 35 | 154 | 0.0 | 0.0 | 0.00 | 0.00 | 0.00 | 90 | 1012.5 |
| 20260508102847 | 35 | 153 | 0.0 | 0.0 | 0.00 | 0.00 | 0.00 | 90 | 1012.6 |
| 20260508102345 | 35 | 152 | 0.0 | 0.0 | 0.00 | 0.00 | 0.00 | 89 | 1012.8 |
| 20260508101842 | 35 | 151 | 0.0 | 0.0 | 0.00 | 0.00 | 0.00 | 89 | 1012.7 |
| 20260508101339 | 35 | 160 | 0.0 | 0.0 | 0.00 | 0.00 | 0.00 | 89 | 1012.8 |
| 20260508100837 | 35 | 152 | 0.0 | 0.0 | 0.00 | 0.00 | 0.00 | 89 | 1012.6 |
| 20260508100335 | 35 | 157 | 0.0 | 0.0 | 0.00 | 0.00 | 0.00 | 89 | 1012.6 |
| 20260508095830 | 35 | 145 | 0.0 | 0.0 | 0.00 | 0.00 | 0.00 | 89 | 1012.5 |
| 20260508095328 | 34 | 141 | 0.0 | 0.9 | 0.00 | 0.00 | 0.00 | 89 | 1012.6 |
| 20260508094825 | 34 | 153 | 0.0 | 0.0 | 0.00 | 0.00 | 0.00 | 88 | 1012.7 |
| 20260508094322 | 34 | 129 | 0.9 | 0.9 | 0.00 | 0.00 | 0.00 | 88 | 1012.5 |
| 20260508093819 | 34 | 138 | 0.9 | 0.9 | 0.00 | 0.00 | 0.00 | 88 | 1012.5 |
| 20260508093317 | 34 | 135 | 0.9 | 0.9 | 0.00 | 0.00 | 0.00 | 88 | 1012.5 |
| 20260508092814 | 35 | 150 | 0.0 | 0.0 | 0.00 | 0.00 | 0.00 | 88 | 1012.3 |
| 20260508092314 | 35 | 153 | 0.0 | 0.0 | 0.00 | 0.00 | 0.00 | 87 | 1012.3 |
| 20260508091810 | 36 | 153 | 0.0 | 0.0 | 0.00 | 0.00 | 0.00 | 87 | 1012.1 |
| 20260508091306 | 35 | 142 | 0.0 | 0.0 | 0.00 | 0.00 | 0.00 | 87 | 1012.2 |
| 20260508090803 | 35 | 135 | 0.0 | 0.9 | 0.00 | 0.00 | 0.00 | 87 | 1012.5 |
| 20260508090301 | 35 | 136 | 0.9 | 0.9 | 0.00 | 0.00 | 0.00 | 87 | 1012.5 |
| 20260508085757 | 35 | 149 | 0.0 | 0.0 | 0.00 | 0.00 | 0.00 | 87 | 1012.2 |
| 20260508085255 | 35 | 120 | 0.0 | 0.0 | 0.00 | 0.00 | 0.00 | 87 | 1012.3 |
| 20260508084750 | 35 | 149 | 0.0 | 0.9 | 0.00 | 0.00 | 0.00 | 86 | 1012.1 |
| 20260508084248 | 36 | 148 | 0.0 | 0.0 | 0.00 | 0.00 | 0.00 | 86 | 1012.1 |
| 20260508083746 | 37 | 125 | 0.9 | 0.9 | 0.00 | 0.00 | 0.00 | 86 | 1012.0 |
| 20260508083243 | 36 | 92 | 1.7 | 2.6 | 0.00 | 0.00 | 0.00 | 86 | 1012.3 |
| 20260508082742 | 36 | 109 | 1.7 | 1.7 | 0.00 | 0.00 | 0.00 | 85 | 1012.2 |
| 20260508082241 | 36 | 106 | 0.9 | 1.7 | 0.00 | 0.00 | 0.00 | 85 | 1012.1 |
| 20260508081738 | 37 | 134 | 1.7 | 1.7 | 0.00 | 0.00 | 0.00 | 85 | 1011.9 |
| 20260508081234 | 37 | 140 | 0.0 | 0.0 | 0.00 | 0.00 | 0.00 | 85 | 1012.0 |
| 20260508080731 | 37 | 134 | 0.9 | 0.9 | 0.00 | 0.00 | 0.00 | 85 | 1011.9 |
| 20260508080229 | 38 | 126 | 0.9 | 0.9 | 0.00 | 0.00 | 0.00 | 85 | 1012.0 |
| 20260508075726 | 39 | 172 | 0.0 | 0.0 | 0.00 | 0.00 | 0.00 | 85 | 1011.9 |
| 20260508075222 | 39 | 172 | 0.0 | 0.0 | 0.00 | 0.00 | 0.00 | 85 | 1011.7 |
| 20260508074720 | 40 | 168 | 0.0 | 0.0 | 0.00 | 0.00 | 0.00 | 85 | 1011.8 |
| 20260508074218 | 40 | 51 | 2.6 | 4.3 | 0.00 | 0.00 | 0.00 | 85 | 1011.8 |
| 20260508073714 | 40 | 130 | 0.9 | 0.9 | 0.00 | 0.00 | 0.00 | 85 | 1011.8 |
| 20260508073213 | 40 | 169 | 0.0 | 0.0 | 0.00 | 0.00 | 0.00 | 85 | 1011.8 |
| 20260508072708 | 40 | 169 | 0.0 | 0.0 | 0.00 | 0.00 | 0.00 | 85 | 1011.8 |
| 20260508072205 | 40 | 169 | 0.0 | 0.0 | 0.00 | 0.00 | 0.00 | 85 | 1011.7 |
| 20260508071702 | 40 | 171 | 0.0 | 0.0 | 0.00 | 0.00 | 0.00 | 84 | 1012.0 |
| 20260508071201 | 40 | 200 | 0.9 | 1.7 | 0.00 | 0.00 | 0.00 | 84 | 1011.8 |
| 20260508070658 | 40 | 105 | 1.7 | 1.7 | 0.00 | 0.00 | 0.00 | 84 | 1011.7 |
| 20260508070157 | 40 | 131 | 0.9 | 0.9 | 0.00 | 0.00 | 0.00 | 84 | 1011.6 |
| 20260508065653 | 40 | 157 | 0.9 | 0.9 | 0.00 | 0.00 | 0.00 | 83 | 1011.5 |
| 20260508065151 | 40 | 160 | 0.0 | 0.0 | 0.00 | 0.00 | 0.00 | 83 | 1011.6 |
| 20260508064648 | 40 | 159 | 0.0 | 0.9 | 0.00 | 0.00 | 0.00 | 83 | 1011.7 |
| 20260508064147 | 40 | 182 | 0.0 | 0.0 | 0.00 | 0.00 | 0.00 | 82 | 1011.4 |
| 20260508063644 | 40 | 147 | 0.0 | 0.9 | 0.00 | 0.00 | 0.00 | 82 | 1011.5 |
| 20260508063141 | 40 | 164 | 0.0 | 0.0 | 0.00 | 0.00 | 0.00 | 81 | 1011.6 |
| 20260508062639 | 40 | 164 | 0.0 | 0.0 | 0.00 | 0.00 | 0.00 | 81 | 1011.4 |
| 20260508062135 | 40 | 163 | 0.0 | 0.0 | 0.00 | 0.00 | 0.00 | 80 | 1011.6 |
| 20260508061633 | 40 | 163 | 0.0 | 0.0 | 0.00 | 0.00 | 0.00 | 80 | 1011.3 |
| 20260508061130 | 40 | 165 | 0.0 | 0.0 | 0.00 | 0.00 | 0.00 | 79 | 1011.5 |
| 20260508060627 | 40 | 81 | 0.0 | 0.0 | 0.00 | 0.00 | 0.00 | 79 | 1011.5 |
| 20260508060124 | 40 | 327 | 2.6 | 2.6 | 0.00 | 0.00 | 0.00 | 79 | 1011.7 |
| 20260508055619 | 41 | 148 | 0.9 | 0.9 | 0.00 | 0.00 | 0.00 | 78 | 1011.6 |
| 20260508055116 | 41 | 168 | 0.0 | 0.0 | 0.00 | 0.00 | 0.00 | 77 | 1011.6 |
| 20260508054613 | 41 | 138 | 0.9 | 1.7 | 0.00 | 0.00 | 0.00 | 76 | 1011.7 |
| 20260508054111 | 41 | 174 | 0.0 | 0.0 | 0.00 | 0.00 | 0.00 | 75 | 1011.5 |
| 20260508053607 | 41 | 175 | 0.0 | 0.9 | 0.00 | 0.00 | 0.00 | 75 | 1011.9 |
| 20260508053105 | 41 | 76 | 2.6 | 2.6 | 0.00 | 0.00 | 0.00 | 75 | 1012.1 |
| 20260508052602 | 41 | 165 | 0.0 | 0.0 | 0.00 | 0.00 | 0.00 | 75 | 1011.9 |
| 20260508052059 | 41 | 159 | 0.0 | 0.0 | 0.00 | 0.00 | 0.00 | 75 | 1011.9 |
| 20260508051555 | 41 | 156 | 0.0 | 0.0 | 0.00 | 0.00 | 0.00 | 75 | 1011.7 |
| 20260508051051 | 41 | 166 | 0.0 | 0.0 | 0.00 | 0.00 | 0.00 | 76 | 1011.9 |
| 20260508050547 | 41 | 144 | 0.9 | 0.9 | 0.00 | 0.00 | 0.00 | 77 | 1011.7 |
| 20260508050045 | 41 | 175 | 0.0 | 0.0 | 0.00 | 0.00 | 0.00 | 79 | 1011.8 |
| 20260508045541 | 40 | 165 | 0.0 | 0.0 | 0.00 | 0.00 | 0.00 | 80 | 1011.9 |
| 20260508045038 | 40 | 121 | 0.0 | 0.0 | 0.00 | 0.00 | 0.00 | 82 | 1011.8 |
| 20260508044536 | 39 | 84 | 0.0 | 0.9 | 0.00 | 0.00 | 0.00 | 84 | 1012.1 |
| 20260508044031 | 39 | 45 | 2.6 | 2.6 | 0.00 | 0.00 | 0.00 | 84 | 1012.1 |
| 20260508043528 | 39 | 154 | 0.0 | 0.9 | 0.00 | 0.00 | 0.00 | 84 | 1012.1 |
| 20260508043026 | 39 | 167 | 0.9 | 0.9 | 0.00 | 0.00 | 0.00 | 84 | 1012.0 |
| 20260508042522 | 39 | 155 | 0.0 | 0.0 | 0.00 | 0.00 | 0.00 | 84 | 1011.7 |
| 20260508042020 | 39 | 130 | 0.9 | 0.9 | 0.00 | 0.00 | 0.00 | 84 | 1011.6 |
| 20260508041516 | 39 | 175 | 0.0 | 0.0 | 0.00 | 0.00 | 0.00 | 84 | 1011.6 |
| 20260508041013 | 38 | 175 | 0.0 | 0.0 | 0.00 | 0.00 | 0.00 | 84 | 1011.8 |
| 20260508040510 | 38 | 175 | 0.0 | 0.0 | 0.00 | 0.00 | 0.00 | 83 | 1011.8 |
| 20260508040007 | 39 | 175 | 0.0 | 0.0 | 0.00 | 0.02 | 0.02 | 83 | 1011.7 |
| 20260508035504 | 39 | 175 | 0.0 | 0.0 | 0.00 | 0.02 | 0.02 | 83 | 1011.7 |
| 20260508035001 | 39 | 175 | 0.0 | 0.0 | 0.00 | 0.02 | 0.02 | 83 | 1011.6 |
| 20260508034458 | 39 | 176 | 0.0 | 0.0 | 0.00 | 0.02 | 0.02 | 82 | 1011.8 |
| 20260508033955 | 39 | 176 | 0.0 | 0.0 | 0.00 | 0.02 | 0.02 | 82 | 1011.8 |
| 20260508033453 | 39 | 176 | 0.0 | 0.0 | 0.00 | 0.02 | 0.02 | 82 | 1011.8 |
| 20260508032950 | 39 | 177 | 0.0 | 0.0 | 0.00 | 0.02 | 0.02 | 82 | 1011.8 |
| 20260508032447 | 39 | 153 | 0.0 | 0.0 | 0.00 | 0.02 | 0.02 | 81 | 1011.6 |
| 20260508031944 | 39 | 155 | 0.9 | 0.9 | 0.00 | 0.02 | 0.02 | 81 | 1011.6 |
| 20260508031436 | 39 | 157 | 0.9 | 0.9 | 0.00 | 0.02 | 0.02 | 80 | 1011.3 |
| 20260508030931 | 39 | 147 | 0.0 | 0.0 | 0.00 | 0.02 | 0.02 | 80 | 1011.3 |
| 20260508030429 | 39 | 147 | 0.0 | 0.0 | 0.00 | 0.02 | 0.02 | 80 | 1011.4 |
| 20260508025926 | 39 | 131 | 0.9 | 1.7 | 0.00 | 0.02 | 0.02 | 79 | 1011.1 |
| 20260508025423 | 39 | 169 | 0.0 | 0.0 | 0.00 | 0.02 | 0.02 | 78 | 1011.3 |
| 20260508024919 | 39 | 178 | 0.9 | 0.9 | 0.00 | 0.02 | 0.02 | 77 | 1011.3 |
| 20260508024416 | 39 | 156 | 0.0 | 0.0 | 0.00 | 0.02 | 0.02 | 76 | 1010.9 |
| 20260508023913 | 39 | 156 | 0.0 | 0.0 | 0.00 | 0.02 | 0.02 | 76 | 1011.1 |
| 20260508023410 | 39 | 146 | 0.0 | 0.0 | 0.00 | 0.02 | 0.02 | 75 | 1011.1 |
| 20260508022907 | 39 | 97 | 1.7 | 1.7 | 0.00 | 0.02 | 0.02 | 75 | 1011.2 |
| 20260508022402 | 39 | 132 | 1.7 | 1.7 | 0.00 | 0.02 | 0.02 | 74 | 1011.3 |
| 20260508021859 | 39 | 141 | 0.0 | 0.9 | 0.00 | 0.02 | 0.02 | 73 | 1011.2 |
| 20260508021355 | 39 | 103 | 1.7 | 1.7 | 0.00 | 0.02 | 0.02 | 73 | 1011.3 |
| 20260508020851 | 39 | 110 | 1.7 | 1.7 | 0.00 | 0.02 | 0.02 | 73 | 1011.0 |
| 20260508020349 | 39 | 148 | 0.0 | 0.0 | 0.00 | 0.02 | 0.02 | 72 | 1010.9 |
| 20260508015846 | 40 | 149 | 0.0 | 0.0 | 0.00 | 0.02 | 0.02 | 71 | 1011.0 |
| 20260508015344 | 40 | 75 | 1.7 | 1.7 | 0.00 | 0.02 | 0.02 | 71 | 1010.8 |
| 20260508014840 | 41 | 89 | 1.7 | 1.7 | 0.00 | 0.02 | 0.02 | 70 | 1011.2 |
| 20260508014338 | 41 | 124 | 0.9 | 0.9 | 0.00 | 0.02 | 0.02 | 68 | 1011.0 |
| 20260508013838 | 42 | 34 | 1.7 | 1.7 | 0.00 | 0.02 | 0.02 | 66 | 1010.8 |
| 20260508013335 | 42 | 34 | 2.6 | 2.6 | 0.00 | 0.02 | 0.02 | 65 | 1010.8 |
| 20260508012832 | 43 | 28 | 2.6 | 2.6 | 0.00 | 0.02 | 0.02 | 64 | 1010.9 |
| 20260508012329 | 43 | 32 | 2.6 | 2.6 | 0.00 | 0.02 | 0.02 | 63 | 1010.8 |
| 20260508011827 | 43 | 20 | 3.5 | 4.3 | 0.00 | 0.02 | 0.02 | 64 | 1011.0 |
| 20260508011324 | 43 | 45 | 1.7 | 1.7 | 0.00 | 0.02 | 0.02 | 64 | 1010.8 |
| 20260508010821 | 43 | 81 | 1.7 | 1.7 | 0.00 | 0.02 | 0.02 | 64 | 1010.8 |
| 20260508010319 | 43 | 23 | 2.6 | 2.6 | 0.00 | 0.02 | 0.02 | 65 | 1010.9 |
| 20260508005816 | 44 | 94 | 1.7 | 1.7 | 0.00 | 0.02 | 0.02 | 63 | 1010.9 |
| 20260508005312 | 45 | 74 | 0.9 | 1.7 | 0.00 | 0.02 | 0.02 | 60 | 1010.5 |
| 20260508004808 | 46 | 107 | 0.9 | 1.7 | 0.00 | 0.02 | 0.02 | 60 | 1010.8 |
| 20260508004259 | 46 | 38 | 2.6 | 2.6 | 0.00 | 0.02 | 0.02 | 62 | 1010.6 |
| 20260508003755 | 47 | 234 | 0.0 | 0.9 | 0.00 | 0.02 | 0.02 | 58 | 1010.6 |
| 20260508003254 | 48 | 8 | 2.6 | 2.6 | 0.00 | 0.02 | 0.02 | 57 | 1010.4 |
| 20260508002749 | 48 | 66 | 1.7 | 1.7 | 0.00 | 0.02 | 0.02 | 57 | 1010.6 |
| 20260508002247 | 48 | 353 | 2.6 | 2.6 | 0.00 | 0.02 | 0.02 | 56 | 1010.2 |
| 20260508001743 | 48 | 286 | 1.7 | 1.7 | 0.00 | 0.02 | 0.02 | 56 | 1010.3 |
| 20260508001238 | 49 | 96 | 0.9 | 1.7 | 0.00 | 0.02 | 0.02 | 55 | 1010.3 |
| 20260508000735 | 49 | 23 | 1.7 | 1.7 | 0.00 | 0.02 | 0.02 | 57 | 1010.3 |
| 20260508000234 | 49 | 163 | 0.0 | 0.9 | 0.00 | 0.02 | 0.02 | 57 | 1010.2 |
| 20260507235728 | 50 | 124 | 0.9 | 0.9 | 0.00 | 0.02 | 0.02 | 56 | 1010.0 |
| 20260507235226 | 50 | 285 | 4.3 | 5.2 | 0.00 | 0.02 | 0.02 | 52 | 1009.8 |
| 20260507234723 | 50 | 254 | 1.7 | 1.7 | 0.00 | 0.02 | 0.02 | 53 | 1010.2 |
| 20260507234219 | 51 | 239 | 0.9 | 0.9 | 0.00 | 0.02 | 0.02 | 52 | 1010.0 |
| 20260507233716 | 51 | 185 | 0.0 | 0.0 | 0.00 | 0.02 | 0.02 | 54 | 1009.8 |
| 20260507233214 | 51 | 194 | 0.9 | 0.9 | 0.00 | 0.02 | 0.02 | 51 | 1009.7 |
| 20260507232710 | 51 | 298 | 2.6 | 2.6 | 0.00 | 0.02 | 0.02 | 50 | 1010.1 |
| 20260507232208 | 51 | 298 | 2.6 | 2.6 | 0.00 | 0.02 | 0.02 | 51 | 1010.0 |
| 20260507231704 | 52 | 328 | 1.7 | 1.7 | 0.00 | 0.02 | 0.02 | 50 | 1010.0 |
| 20260507231201 | 52 | 290 | 2.6 | 4.3 | 0.00 | 0.02 | 0.02 | 49 | 1009.8 |
| 20260507230658 | 52 | 165 | 0.9 | 0.9 | 0.00 | 0.02 | 0.02 | 49 | 1009.7 |
| 20260507230155 | 52 | 329 | 2.6 | 2.6 | 0.00 | 0.02 | 0.02 | 50 | 1009.8 |
| 20260507225655 | 52 | 268 | 1.7 | 2.6 | 0.00 | 0.02 | 0.02 | 49 | 1009.8 |
| 20260507225152 | 53 | 209 | 0.9 | 1.7 | 0.00 | 0.02 | 0.02 | 49 | 1009.8 |
| 20260507224647 | 54 | 254 | 0.9 | 1.7 | 0.00 | 0.02 | 0.02 | 49 | 1009.8 |
| 20260507224144 | 52 | 345 | 0.9 | 1.7 | 0.00 | 0.02 | 0.02 | 51 | 1009.8 |
| 20260507223640 | 51 | 285 | 0.9 | 1.7 | 0.00 | 0.02 | 0.02 | 51 | 1009.7 |
| 20260507223137 | 51 | 237 | 1.7 | 1.7 | 0.00 | 0.02 | 0.02 | 49 | 1009.8 |
| 20260507222634 | 52 | 330 | 2.6 | 4.3 | 0.00 | 0.02 | 0.02 | 50 | 1009.6 |
| 20260507222130 | 52 | 217 | 0.9 | 1.7 | 0.00 | 0.02 | 0.02 | 50 | 1009.7 |
| 20260507221627 | 52 | 269 | 2.6 | 2.6 | 0.00 | 0.02 | 0.02 | 48 | 1010.0 |
| 20260507221123 | 53 | 147 | 0.0 | 0.9 | 0.00 | 0.02 | 0.02 | 49 | 1009.8 |
| 20260507220620 | 53 | 281 | 5.2 | 6.1 | 0.00 | 0.02 | 0.02 | 47 | 1009.7 |
| 20260507220118 | 52 | 130 | 1.7 | 1.7 | 0.00 | 0.02 | 0.02 | 50 | 1009.8 |
| 20260507215614 | 52 | 0 | 7.0 | 9.6 | 0.00 | 0.02 | 0.02 | 49 | 1009.8 |
| 20260507215112 | 52 | 319 | 2.6 | 4.3 | 0.00 | 0.02 | 0.02 | 49 | 1010.1 |
| 20260507214609 | 52 | 194 | 1.7 | 2.6 | 0.00 | 0.02 | 0.02 | 48 | 1010.2 |
| 20260507214105 | 52 | 290 | 1.7 | 2.6 | 0.00 | 0.02 | 0.02 | 49 | 1010.1 |
| 20260507213601 | 53 | 301 | 2.6 | 4.3 | 0.00 | 0.02 | 0.02 | 49 | 1010.0 |
| 20260507213059 | 54 | 202 | 0.9 | 0.9 | 0.00 | 0.02 | 0.02 | 48 | 1010.2 |
| 20260507212554 | 54 | 300 | 2.6 | 2.6 | 0.00 | 0.02 | 0.02 | 50 | 1010.1 |
| 20260507212051 | 55 | 303 | 4.3 | 6.1 | 0.00 | 0.02 | 0.02 | 47 | 1010.1 |
| 20260507211548 | 54 | 339 | 3.5 | 4.3 | 0.00 | 0.02 | 0.02 | 48 | 1010.1 |
| 20260507211044 | 54 | 332 | 7.0 | 7.8 | 0.00 | 0.02 | 0.02 | 49 | 1010.3 |
| 20260507210542 | 54 | 323 | 6.1 | 8.7 | 0.00 | 0.02 | 0.02 | 49 | 1010.3 |
| 20260507210038 | 56 | 220 | 1.7 | 1.7 | 0.00 | 0.02 | 0.02 | 47 | 1010.1 |
| 20260507205535 | 55 | 253 | 5.2 | 6.1 | 0.00 | 0.02 | 0.02 | 47 | 1009.8 |
| 20260507205031 | 55 | 237 | 5.2 | 7.0 | 0.00 | 0.02 | 0.02 | 47 | 1009.8 |
| 20260507204527 | 55 | 305 | 4.3 | 5.2 | 0.00 | 0.02 | 0.02 | 49 | 1009.7 |
| 20260507204025 | 54 | 237 | 2.6 | 2.6 | 0.00 | 0.02 | 0.02 | 50 | 1010.3 |
| 20260507203523 | 54 | 52 | 3.5 | 5.2 | 0.00 | 0.02 | 0.02 | 51 | 1010.1 |
| 20260507203020 | 53 | 332 | 3.5 | 4.3 | 0.00 | 0.02 | 0.02 | 52 | 1010.0 |
| 20260507202516 | 53 | 299 | 3.5 | 5.2 | 0.00 | 0.02 | 0.02 | 49 | 1010.0 |
| 20260507202012 | 54 | 269 | 5.2 | 7.8 | 0.00 | 0.02 | 0.02 | 48 | 1010.2 |
| 20260507201508 | 55 | 291 | 7.0 | 7.8 | 0.00 | 0.02 | 0.02 | 46 | 1010.1 |
| 20260507201004 | 55 | 289 | 4.3 | 6.1 | 0.00 | 0.02 | 0.02 | 47 | 1010.3 |
| 20260507200500 | 53 | 237 | 3.5 | 4.3 | 0.00 | 0.02 | 0.02 | 49 | 1010.0 |
| 20260507195955 | 53 | 271 | 3.5 | 5.2 | 0.00 | 0.02 | 0.02 | 49 | 1010.2 |
| 20260507195454 | 54 | 280 | 7.8 | 9.6 | 0.00 | 0.02 | 0.02 | 46 | 1010.3 |
| 20260507194951 | 55 | 352 | 6.1 | 7.8 | 0.00 | 0.02 | 0.02 | 47 | 1010.0 |
| 20260507194447 | 55 | 304 | 6.1 | 7.0 | 0.00 | 0.02 | 0.02 | 49 | 1010.2 |
| 20260507193943 | 56 | 273 | 2.6 | 5.2 | 0.00 | 0.02 | 0.02 | 46 | 1010.3 |
| 20260507193440 | 54 | 265 | 3.5 | 5.2 | 0.00 | 0.02 | 0.02 | 47 | 1010.3 |
| 20260507192937 | 56 | 185 | 0.9 | 0.9 | 0.00 | 0.02 | 0.02 | 48 | 1010.4 |
| 20260507192433 | 55 | 9 | 2.6 | 2.6 | 0.00 | 0.02 | 0.02 | 52 | 1010.6 |
| 20260507191930 | 53 | 93 | 1.7 | 2.6 | 0.00 | 0.02 | 0.02 | 53 | 1010.7 |
| 20260507191426 | 52 | 46 | 1.7 | 4.3 | 0.00 | 0.02 | 0.02 | 52 | 1010.7 |
| 20260507190923 | 52 | 304 | 7.8 | 9.6 | 0.00 | 0.02 | 0.02 | 50 | 1010.7 |
| 20260507190421 | 53 | 258 | 5.2 | 6.1 | 0.00 | 0.02 | 0.02 | 49 | 1010.5 |
| 20260507185920 | 53 | 1 | 2.6 | 4.3 | 0.00 | 0.02 | 0.02 | 50 | 1010.6 |
| 20260507185417 | 52 | 197 | 4.3 | 5.2 | 0.00 | 0.02 | 0.02 | 49 | 1010.7 |
| 20260507184913 | 52 | 307 | 2.6 | 4.3 | 0.00 | 0.02 | 0.02 | 51 | 1010.9 |
| 20260507184411 | 53 | 240 | 3.5 | 4.3 | 0.00 | 0.02 | 0.02 | 51 | 1010.8 |
| 20260507183908 | 53 | 170 | 1.7 | 1.7 | 0.00 | 0.02 | 0.02 | 50 | 1010.7 |
| 20260507183405 | 54 | 290 | 3.5 | 4.3 | 0.00 | 0.02 | 0.02 | 49 | 1010.7 |
| 20260507182903 | 53 | 275 | 2.6 | 2.6 | 0.00 | 0.02 | 0.02 | 49 | 1011.0 |
| 20260507182358 | 53 | 243 | 2.6 | 4.3 | 0.00 | 0.02 | 0.02 | 48 | 1011.2 |
| 20260507181855 | 53 | 303 | 8.7 | 11.3 | 0.00 | 0.02 | 0.02 | 48 | 1011.0 |
| 20260507181350 | 53 | 307 | 4.3 | 6.1 | 0.00 | 0.02 | 0.02 | 48 | 1011.0 |
| 20260507180848 | 53 | 292 | 5.2 | 6.1 | 0.00 | 0.02 | 0.02 | 48 | 1010.8 |
| 20260507180344 | 54 | 295 | 4.3 | 6.1 | 0.00 | 0.02 | 0.02 | 48 | 1011.0 |
| 20260507175840 | 52 | 201 | 0.9 | 1.7 | 0.00 | 0.02 | 0.02 | 49 | 1011.2 |
| 20260507175337 | 53 | 318 | 2.6 | 6.1 | 0.00 | 0.02 | 0.02 | 49 | 1011.4 |
| 20260507174835 | 53 | 13 | 2.6 | 4.3 | 0.00 | 0.02 | 0.02 | 49 | 1011.1 |
| 20260507174332 | 53 | 314 | 2.6 | 2.6 | 0.00 | 0.02 | 0.02 | 50 | 1011.3 |
| 20260507173829 | 53 | 345 | 7.0 | 9.6 | 0.00 | 0.02 | 0.02 | 48 | 1011.1 |
| 20260507173326 | 53 | 120 | 1.7 | 2.6 | 0.00 | 0.02 | 0.02 | 50 | 1011.2 |
| 20260507172822 | 53 | 221 | 1.7 | 1.7 | 0.00 | 0.02 | 0.02 | 48 | 1011.2 |
| 20260507172319 | 54 | 291 | 4.3 | 6.1 | 0.00 | 0.02 | 0.02 | 47 | 1011.2 |
| 20260507171815 | 54 | 201 | 0.9 | 0.9 | 0.00 | 0.02 | 0.02 | 48 | 1011.2 |
| 20260507171312 | 54 | 237 | 2.6 | 5.2 | 0.00 | 0.02 | 0.02 | 47 | 1011.2 |
| 20260507170809 | 54 | 261 | 2.6 | 4.3 | 0.00 | 0.02 | 0.02 | 48 | 1011.3 |
| 20260507170306 | 55 | 296 | 5.2 | 7.8 | 0.00 | 0.02 | 0.02 | 46 | 1011.4 |
| 20260507165801 | 53 | 208 | 4.3 | 6.1 | 0.00 | 0.02 | 0.02 | 51 | 1011.6 |
| 20260507165258 | 52 | 258 | 7.8 | 9.6 | 0.00 | 0.02 | 0.02 | 50 | 1011.4 |
| 20260507164754 | 52 | 302 | 4.3 | 6.1 | 0.00 | 0.02 | 0.02 | 49 | 1011.6 |
| 20260507164251 | 53 | 316 | 7.0 | 11.3 | 0.00 | 0.02 | 0.02 | 49 | 1011.4 |
| 20260507163748 | 53 | 226 | 5.2 | 7.0 | 0.00 | 0.02 | 0.02 | 49 | 1011.4 |
| 20260507163246 | 52 | 268 | 4.3 | 6.1 | 0.00 | 0.02 | 0.02 | 49 | 1011.8 |
| 20260507162742 | 52 | 247 | 6.1 | 6.1 | 0.00 | 0.02 | 0.02 | 49 | 1011.7 |
| 20260507162238 | 52 | 286 | 6.1 | 7.8 | 0.00 | 0.02 | 0.02 | 48 | 1011.9 |
| 20260507161735 | 52 | 262 | 3.5 | 4.3 | 0.00 | 0.02 | 0.02 | 48 | 1011.7 |
| 20260507161231 | 53 | 253 | 0.9 | 1.7 | 0.00 | 0.02 | 0.02 | 50 | 1011.8 |
| 20260507160727 | 53 | 282 | 4.3 | 5.2 | 0.00 | 0.02 | 0.02 | 49 | 1012.0 |
| 20260507160224 | 53 | 123 | 0.9 | 0.9 | 0.00 | 0.02 | 0.02 | 50 | 1011.9 |
| 20260507155720 | 54 | 294 | 7.0 | 7.8 | 0.00 | 0.02 | 0.02 | 48 | 1012.0 |
| 20260507155216 | 52 | 219 | 3.5 | 5.2 | 0.00 | 0.02 | 0.02 | 51 | 1012.0 |
| 20260507154713 | 51 | 219 | 2.6 | 2.6 | 0.00 | 0.02 | 0.02 | 53 | 1012.3 |
| 20260507154211 | 51 | 281 | 4.3 | 5.2 | 0.00 | 0.02 | 0.02 | 51 | 1012.1 |
| 20260507153707 | 52 | 22 | 2.6 | 4.3 | 0.00 | 0.02 | 0.02 | 50 | 1012.0 |
| 20260507153203 | 52 | 66 | 2.6 | 2.6 | 0.00 | 0.02 | 0.02 | 53 | 1012.2 |
| 20260507152700 | 51 | 113 | 0.9 | 0.9 | 0.00 | 0.02 | 0.02 | 52 | 1012.2 |
| 20260507152156 | 50 | 24 | 3.5 | 4.3 | 0.00 | 0.02 | 0.02 | 52 | 1012.3 |
| 20260507151652 | 52 | 328 | 6.1 | 7.8 | 0.00 | 0.02 | 0.02 | 49 | 1012.2 |
| 20260507151149 | 52 | 164 | 0.0 | 0.0 | 0.00 | 0.02 | 0.02 | 50 | 1012.5 |
| 20260507150646 | 51 | 6 | 2.6 | 2.6 | 0.00 | 0.02 | 0.02 | 50 | 1012.3 |
| 20260507150143 | 50 | 78 | 3.5 | 4.3 | 0.00 | 0.02 | 0.02 | 51 | 1012.5 |
| 20260507145638 | 53 | 99 | 1.7 | 1.7 | 0.00 | 0.02 | 0.02 | 52 | 1012.4 |
| 20260507145136 | 53 | 234 | 2.6 | 2.6 | 0.00 | 0.02 | 0.02 | 47 | 1012.8 |
| 20260507144632 | 52 | 266 | 4.3 | 5.2 | 0.00 | 0.02 | 0.02 | 49 | 1012.7 |
| 20260507144130 | 51 | 151 | 1.7 | 1.7 | 0.00 | 0.02 | 0.02 | 50 | 1012.8 |
| 20260507143626 | 51 | 194 | 0.9 | 0.9 | 0.00 | 0.02 | 0.02 | 48 | 1012.8 |
| 20260507143124 | 51 | 232 | 1.7 | 2.6 | 0.00 | 0.02 | 0.02 | 49 | 1012.8 |
| 20260507142619 | 51 | 279 | 3.5 | 7.0 | 0.00 | 0.02 | 0.02 | 50 | 1012.8 |
| 20260507142116 | 50 | 60 | 1.7 | 1.7 | 0.00 | 0.02 | 0.02 | 50 | 1012.7 |
| 20260507141612 | 50 | 179 | 0.9 | 0.9 | 0.00 | 0.02 | 0.02 | 52 | 1012.8 |
| 20260507141109 | 50 | 301 | 1.7 | 4.3 | 0.00 | 0.02 | 0.02 | 55 | 1012.6 |
| 20260507140606 | 50 | 222 | 2.6 | 2.6 | 0.00 | 0.02 | 0.02 | 56 | 1012.7 |
| 20260507140103 | 49 | 180 | 1.7 | 2.6 | 0.00 | 0.02 | 0.02 | 58 | 1012.8 |
| 20260507135600 | 49 | 343 | 2.6 | 4.3 | 0.00 | 0.02 | 0.02 | 57 | 1013.0 |
| 20260507135058 | 48 | 229 | 1.7 | 2.6 | 0.00 | 0.02 | 0.02 | 62 | 1012.9 |
| 20260507134554 | 48 | 335 | 2.6 | 4.3 | 0.00 | 0.02 | 0.02 | 63 | 1013.1 |
| 20260507134050 | 48 | 162 | 0.9 | 0.9 | 0.00 | 0.02 | 0.02 | 63 | 1013.1 |
| 20260507133546 | 48 | 157 | 0.9 | 0.9 | 0.00 | 0.02 | 0.02 | 64 | 1013.0 |
| 20260507133044 | 46 | 118 | 0.9 | 1.7 | 0.00 | 0.02 | 0.02 | 67 | 1013.1 |